Tianji

operational
NORAD ID: 52389 Int'l Des: 2022-046 Owner: CGSTL Country: CN
LEOCIRCULARRETROGRADE

About Tianji

Description loading...

Live Position

Loading 3D Globe...

Upcoming Passes

Altitude History

Altitude vs Time

uPlot chart will show altitude changes over time

Two-Line Element Set

1 52389U 22046B 26101.90536284 .00316395 40676-4 87937-3 0 9999
2 52389 97.4876 219.9124 0005908 246.1369 113.9286 15.93726704220122
Epoch: Apr 11, 2026 • Age: 8 hours

Current Status

Altitude 299.8 km
Velocity 7.73 km/s
Sub-Earth Point -31.06°S, 103.13°E
Launch Date Apr 30, 2022
Age 3.9 years
Type other

Technical Details

Classification Payload
Mass 43.00 kg
Dry Mass 43.00 kg
Total Mass 43.00 kg
Length 1.50 m
Diameter 1.00 m
Span 1.50 m
Shape Box
Manufacturer CGSTL
Bus Type JL-1
Phase Status In Orbit
Owner/State CGSTL/CN

Large Constellations

Loading constellations...